Powrót do katalogu

SL-16 DEB

AktywnyLEO
NORAD 24301·DEBRIS·🇷🇺 Russia

Wystrzelony Sep 4, 1996 z Baikonur Cosmodrome

Loading…

Następne Przeloty (najbliższe 24 godziny)

TLE

ŚwieżeSource: Space-Track

Epoka: Sep 14, 2026, 15:49 UTC

1 24301U 96051E   26257.65969119 -.00000017  00000-0  23548-4 0  9994
2 24301  70.9950 335.3577 0205155  49.8616 101.0648 13.72629870503246

Śledź SL-16 DEB w czasie rzeczywistym z AllMySat

Download on the App Store